NKS475 KDTW-KMCI

Flight info

Callsign NKS475
Flight time 1h 33m
Altitude 34000
Route KAYLN3 SMUUV EDENS BULET RUDDH3
Aircraft A320/M-SDE3FGHIRWY/LB1

Departure

Time 2026-05-04 09:09
Airport Detroit Metropolitan Wayne County Airport (KDTW)

Arrival

Time 2026-05-04 10:42
Airport Kansas City International Airport (KMCI)
Time Latitude Longitude Altitude Speed Heading
2026-05-04 08:42 42.22821 -83.34732 646 ft 0 kts 118°
2026-05-04 08:57 42.22885 -83.34790 649 ft 0 kts 208°
2026-05-04 09:01 42.22481 -83.35198 648 ft 20 kts 208°
2026-05-04 09:01 42.22351 -83.35285 646 ft 21 kts 209°
2026-05-04 09:01 42.22227 -83.35391 646 ft 21 kts 212°
2026-05-04 09:01 42.22098 -83.35490 646 ft 22 kts 208°
2026-05-04 09:02 42.21965 -83.35588 645 ft 21 kts 208°
2026-05-04 09:02 42.21850 -83.35658 645 ft 16 kts 170°
2026-05-04 09:02 42.21819 -83.35531 645 ft 15 kts 88°
2026-05-04 09:02 42.21822 -83.35389 645 ft 15 kts 88°
2026-05-04 09:03 42.21825 -83.35239 645 ft 17 kts 89°
2026-05-04 09:03 42.21827 -83.35070 646 ft 19 kts 87°
2026-05-04 09:03 42.21831 -83.34892 646 ft 20 kts 88°
2026-05-04 09:03 42.21835 -83.34697 646 ft 21 kts 89°
2026-05-04 09:04 42.21835 -83.34489 647 ft 23 kts 91°
2026-05-04 09:04 42.21838 -83.34262 645 ft 25 kts 88°
2026-05-04 09:04 42.21847 -83.34031 647 ft 24 kts 89°
2026-05-04 09:04 42.21852 -83.33814 646 ft 20 kts 88°
2026-05-04 09:05 42.21901 -83.33711 646 ft 13 kts 27°
2026-05-04 09:05 42.21986 -83.33650 647 ft 15 kts 28°
2026-05-04 09:05 42.22016 -83.33550 646 ft 12 kts 118°
2026-05-04 09:05 42.22011 -83.33537 646 ft 0 kts 120°
2026-05-04 09:07 42.22006 -83.33525 646 ft 5 kts 120°
2026-05-04 09:08 42.21971 -83.33446 644 ft 13 kts 120°
2026-05-04 09:08 42.21898 -83.33461 644 ft 14 kts 208°
2026-05-04 09:08 42.21669 -83.33627 644 ft 68 kts 209°
2026-05-04 09:08 42.21094 -83.34054 649 ft 117 kts 209°
2026-05-04 09:09 42.20260 -83.34669 656 ft 154 kts 208°
2026-05-04 09:09 42.19283 -83.35393 1051 ft 161 kts 209°
2026-05-04 09:09 42.18321 -83.36132 1772 ft 156 kts 219°
2026-05-04 09:09 42.17593 -83.37138 2500 ft 148 kts 240°
2026-05-04 09:10 42.16997 -83.38380 2870 ft 168 kts 241°
2026-05-04 09:10 42.16302 -83.39785 3103 ft 190 kts 240°
2026-05-04 09:10 42.15514 -83.41362 3373 ft 215 kts 240°
2026-05-04 09:10 42.14942 -83.42505 3609 ft 231 kts 239°
2026-05-04 09:11 42.14011 -83.44351 4240 ft 243 kts 239°
2026-05-04 09:11 42.13044 -83.46258 5045 ft 249 kts 238°
2026-05-04 09:11 42.12060 -83.48196 5904 ft 252 kts 238°
2026-05-04 09:11 42.11067 -83.50156 6679 ft 257 kts 238°
2026-05-04 09:12 42.10054 -83.52154 6952 ft 259 kts 238°
2026-05-04 09:12 42.09029 -83.54169 7653 ft 261 kts 239°
2026-05-04 09:14 42.09273 -83.69799 11670 ft 318 kts 302°
2026-05-04 09:14 42.10133 -83.72593 11957 ft 330 kts 281°
2026-05-04 09:14 42.10124 -83.75743 12510 ft 338 kts 263°
2026-05-04 09:14 42.09745 -83.78878 13148 ft 341 kts 262°
2026-05-04 09:15 42.09344 -83.82044 13772 ft 345 kts 262°
2026-05-04 09:15 42.08933 -83.85235 14355 ft 347 kts 262°
2026-05-04 09:15 42.08518 -83.88448 14918 ft 350 kts 262°
2026-05-04 09:15 42.08100 -83.91678 15480 ft 352 kts 262°
2026-05-04 09:17 42.05104 -84.14623 22649 ft 274 kts 265°
2026-05-04 09:18 42.04777 -84.17166 23086 ft 277 kts 265°
2026-05-04 09:18 42.04448 -84.19731 23516 ft 280 kts 265°
2026-05-04 09:18 42.04108 -84.22359 23890 ft 283 kts 265°
2026-05-04 09:18 42.03771 -84.24942 24255 ft 285 kts 265°
2026-05-04 09:19 42.03424 -84.27580 24627 ft 288 kts 265°
2026-05-04 09:19 42.03067 -84.30279 24979 ft 290 kts 265°
2026-05-04 09:19 42.02710 -84.32964 25338 ft 293 kts 265°
2026-05-04 09:19 42.02348 -84.35667 25698 ft 295 kts 265°
2026-05-04 09:20 42.01985 -84.38388 26017 ft 297 kts 265°
2026-05-04 09:20 42.01620 -84.41139 26360 ft 300 kts 265°
2026-05-04 09:20 42.01256 -84.43906 26711 ft 302 kts 265°
2026-05-04 09:20 42.00885 -84.46700 27051 ft 304 kts 265°
2026-05-04 09:21 42.00509 -84.49515 27387 ft 307 kts 265°
2026-05-04 09:21 42.00129 -84.52347 27734 ft 309 kts 265°
2026-05-04 09:21 41.99746 -84.55200 28078 ft 312 kts 265°
2026-05-04 09:21 41.99355 -84.58107 28243 ft 320 kts 265°
2026-05-04 09:22 41.98956 -84.61083 28382 ft 328 kts 265°
2026-05-04 09:22 41.98543 -84.64145 28522 ft 337 kts 264°
2026-05-04 09:22 41.98118 -84.67277 28656 ft 345 kts 264°
2026-05-04 09:22 41.97682 -84.70480 28804 ft 353 kts 264°
2026-05-04 09:23 41.97236 -84.73753 29008 ft 359 kts 264°
2026-05-04 09:23 41.96783 -84.77062 29297 ft 362 kts 264°
2026-05-04 09:23 41.96319 -84.80459 29591 ft 366 kts 264°
2026-05-04 09:23 41.95856 -84.83839 29868 ft 370 kts 264°
2026-05-04 09:25 41.92459 -85.08407 31635 ft 394 kts 264°
2026-05-04 09:25 41.91953 -85.12050 31896 ft 398 kts 264°
2026-05-04 09:26 41.91442 -85.15699 32156 ft 401 kts 264°
2026-05-04 09:26 41.90924 -85.19393 32409 ft 405 kts 264°
2026-05-04 09:26 41.90399 -85.23130 32603 ft 409 kts 264°
2026-05-04 09:26 41.89869 -85.26889 32931 ft 410 kts 264°
2026-05-04 09:27 41.89335 -85.30643 33326 ft 410 kts 264°
2026-05-04 09:27 41.88800 -85.34387 33678 ft 410 kts 264°
2026-05-04 09:27 41.88261 -85.38158 33785 ft 413 kts 264°
2026-05-04 09:27 41.87719 -85.41973 33795 ft 418 kts 264°
2026-05-04 09:28 41.86619 -85.49677 33794 ft 421 kts 264°
2026-05-04 09:28 41.85507 -85.57400 33777 ft 422 kts 264°
2026-05-04 09:29 41.84393 -85.65120 33779 ft 422 kts 264°
2026-05-04 09:29 41.83275 -85.72891 33782 ft 422 kts 264°
2026-05-04 09:30 41.82153 -85.80611 33792 ft 422 kts 263°
2026-05-04 09:30 41.81015 -85.88339 33790 ft 422 kts 263°
2026-05-04 09:31 41.79875 -85.96059 33790 ft 423 kts 263°
2026-05-04 09:31 41.78729 -86.03791 33793 ft 423 kts 263°
2026-05-04 09:32 41.77581 -86.11516 33795 ft 423 kts 263°
2026-05-04 09:34 41.72931 -86.42407 33797 ft 423 kts 263°
2026-05-04 09:34 41.71752 -86.50177 33778 ft 423 kts 263°
2026-05-04 09:35 41.70572 -86.57885 33768 ft 423 kts 262°
2026-05-04 09:35 41.69387 -86.65591 33778 ft 423 kts 262°
2026-05-04 09:37 41.64593 -86.96416 33783 ft 423 kts 262°
2026-05-04 09:38 41.63382 -87.04117 33806 ft 424 kts 262°
2026-05-04 09:38 41.62160 -87.11824 33802 ft 424 kts 262°
2026-05-04 09:39 41.60934 -87.19532 33795 ft 424 kts 262°
2026-05-04 09:39 41.59707 -87.27239 33783 ft 424 kts 262°
2026-05-04 09:40 41.58461 -87.35002 33770 ft 424 kts 261°
2026-05-04 09:40 41.57222 -87.42702 33776 ft 425 kts 261°
2026-05-04 09:42 41.52414 -87.72269 33767 ft 424 kts 261°
2026-05-04 09:43 41.51149 -87.79961 33776 ft 424 kts 260°
2026-05-04 09:43 41.49869 -87.87698 33779 ft 424 kts 260°
2026-05-04 09:44 41.48592 -87.95370 33782 ft 424 kts 260°
2026-05-04 09:46 41.43441 -88.26074 33777 ft 423 kts 260°
2026-05-04 09:46 41.42135 -88.33773 33784 ft 423 kts 260°
2026-05-04 09:47 41.40838 -88.41407 33785 ft 423 kts 259°
2026-05-04 09:49 41.35579 -88.71929 33787 ft 421 kts 259°
2026-05-04 09:51 41.30941 -88.98436 33773 ft 419 kts 259°
2026-05-04 09:51 41.29601 -89.06039 33775 ft 420 kts 259°
2026-05-04 09:52 41.28262 -89.13593 33790 ft 420 kts 259°
2026-05-04 09:52 41.26916 -89.21144 33796 ft 420 kts 259°
2026-05-04 09:53 41.25565 -89.28684 33780 ft 420 kts 258°
2026-05-04 09:53 41.24205 -89.36242 33779 ft 420 kts 259°
2026-05-04 09:54 41.22847 -89.43797 33782 ft 421 kts 258°
2026-05-04 09:54 41.21467 -89.51405 33783 ft 421 kts 258°
2026-05-04 09:55 41.20098 -89.58954 33776 ft 421 kts 258°
2026-05-04 09:55 41.18725 -89.66495 33776 ft 420 kts 258°
2026-05-04 09:56 41.17345 -89.74037 33779 ft 420 kts 258°
2026-05-04 09:56 41.15962 -89.81578 33779 ft 420 kts 258°
2026-05-04 09:57 41.14566 -89.89105 33775 ft 420 kts 258°
2026-05-04 09:57 41.13164 -89.96624 33760 ft 420 kts 258°
2026-05-04 09:58 41.11713 -90.04141 33757 ft 421 kts 253°
2026-05-04 09:58 41.09279 -90.11235 33769 ft 424 kts 246°
2026-05-04 10:00 40.98798 -90.39324 33788 ft 425 kts 246°
2026-05-04 10:04 40.80319 -90.88253 33760 ft 424 kts 246°
2026-05-04 10:04 40.77666 -90.95200 33764 ft 424 kts 246°
2026-05-04 10:05 40.75008 -91.02153 33767 ft 425 kts 246°
2026-05-04 10:05 40.72346 -91.09111 33773 ft 425 kts 246°
2026-05-04 10:06 40.69678 -91.16054 33768 ft 425 kts 245°
2026-05-04 10:06 40.67005 -91.22993 33775 ft 424 kts 245°
2026-05-04 10:08 40.58087 -91.46054 33788 ft 423 kts 245°
2026-05-04 10:08 40.55404 -91.52955 33770 ft 423 kts 245°
2026-05-04 10:09 40.52712 -91.59843 33775 ft 423 kts 245°
2026-05-04 10:09 40.50014 -91.66715 33779 ft 423 kts 245°
2026-05-04 10:10 40.47321 -91.73596 33781 ft 423 kts 245°
2026-05-04 10:10 40.44630 -91.80467 33798 ft 422 kts 246°
2026-05-04 10:11 40.41950 -91.87272 33819 ft 418 kts 246°
2026-05-04 10:11 40.39283 -91.94019 33806 ft 415 kts 246°
2026-05-04 10:12 40.36631 -92.00722 33809 ft 413 kts 246°
2026-05-04 10:12 40.33993 -92.07392 33807 ft 411 kts 246°
2026-05-04 10:13 40.31343 -92.14082 33808 ft 410 kts 246°
2026-05-04 10:13 40.28708 -92.20710 33806 ft 410 kts 245°
2026-05-04 10:14 40.26064 -92.27326 33797 ft 410 kts 245°
2026-05-04 10:16 40.16962 -92.50024 33797 ft 393 kts 246°
2026-05-04 10:16 40.15693 -92.53179 33794 ft 393 kts 246°
2026-05-04 10:16 40.13143 -92.59503 33794 ft 393 kts 246°
2026-05-04 10:17 40.11877 -92.62725 33569 ft 393 kts 246°
2026-05-04 10:17 40.10660 -92.65916 33289 ft 393 kts 247°
2026-05-04 10:19 40.02629 -92.87130 31422 ft 355 kts 246°
2026-05-04 10:19 40.01532 -92.89989 31169 ft 352 kts 246°
2026-05-04 10:19 40.00433 -92.92851 30637 ft 354 kts 246°
2026-05-04 10:19 39.99332 -92.95721 30229 ft 351 kts 246°
2026-05-04 10:20 39.98241 -92.98554 29764 ft 349 kts 245°
2026-05-04 10:20 39.97152 -93.01380 29252 ft 347 kts 245°
2026-05-04 10:20 39.96061 -93.04215 28767 ft 345 kts 245°
2026-05-04 10:20 39.94986 -93.07002 28291 ft 344 kts 245°
2026-05-04 10:21 39.93911 -93.09783 27799 ft 343 kts 245°
2026-05-04 10:21 39.92841 -93.12555 27363 ft 341 kts 246°
2026-05-04 10:21 39.91779 -93.15306 26942 ft 339 kts 246°
2026-05-04 10:21 39.90721 -93.18042 26526 ft 337 kts 246°
2026-05-04 10:22 39.88622 -93.23463 25686 ft 333 kts 246°
2026-05-04 10:22 39.87579 -93.26150 25270 ft 332 kts 246°
2026-05-04 10:22 39.86540 -93.28824 24862 ft 330 kts 246°
2026-05-04 10:23 39.85508 -93.31476 24456 ft 328 kts 246°
2026-05-04 10:23 39.84481 -93.34113 24052 ft 326 kts 246°
2026-05-04 10:25 39.77314 -93.52138 21004 ft 313 kts 246°
2026-05-04 10:25 39.76312 -93.54644 20587 ft 312 kts 246°
2026-05-04 10:25 39.75315 -93.57129 20174 ft 310 kts 245°
2026-05-04 10:25 39.74319 -93.59607 19762 ft 307 kts 245°
2026-05-04 10:26 39.73333 -93.62054 19391 ft 305 kts 246°
2026-05-04 10:26 39.72355 -93.64488 19005 ft 303 kts 246°
2026-05-04 10:26 39.71382 -93.66910 18461 ft 305 kts 246°
2026-05-04 10:26 39.70378 -93.69413 17471 ft 320 kts 245°
2026-05-04 10:27 39.69332 -93.72023 16624 ft 328 kts 245°
2026-05-04 10:27 39.68278 -93.74641 15980 ft 323 kts 245°
2026-05-04 10:27 39.67241 -93.77199 15111 ft 318 kts 245°
2026-05-04 10:27 39.66222 -93.79712 14288 ft 312 kts 245°
2026-05-04 10:28 39.65221 -93.82179 13429 ft 307 kts 245°
2026-05-04 10:28 39.64217 -93.84655 12600 ft 306 kts 245°
2026-05-04 10:28 39.63230 -93.87091 12068 ft 305 kts 245°
2026-05-04 10:28 39.62279 -93.89526 11722 ft 299 kts 246°
2026-05-04 10:29 39.61380 -93.91967 11464 ft 299 kts 247°
2026-05-04 10:29 39.60517 -93.94368 11301 ft 287 kts 248°
2026-05-04 10:29 39.59696 -93.96661 11178 ft 275 kts 248°
2026-05-04 10:29 39.58904 -93.98868 11048 ft 265 kts 248°
2026-05-04 10:30 39.58137 -94.00991 10853 ft 257 kts 248°
2026-05-04 10:30 39.57382 -94.03077 10548 ft 255 kts 248°
2026-05-04 10:30 39.56631 -94.05147 10233 ft 253 kts 248°
2026-05-04 10:30 39.55883 -94.07197 9918 ft 251 kts 247°
2026-05-04 10:31 39.55136 -94.09239 9607 ft 249 kts 247°
2026-05-04 10:31 39.54397 -94.11258 9267 ft 247 kts 247°
2026-05-04 10:32 39.52311 -94.23798 7907 ft 236 kts 261°
2026-05-04 10:33 39.52079 -94.25923 7679 ft 235 kts 261°
2026-05-04 10:33 39.51850 -94.28015 7465 ft 234 kts 261°
2026-05-04 10:33 39.51622 -94.30092 7249 ft 233 kts 261°
2026-05-04 10:33 39.51396 -94.32161 7032 ft 232 kts 261°
2026-05-04 10:34 39.51172 -94.34224 6816 ft 230 kts 261°
2026-05-04 10:34 39.50949 -94.36269 6601 ft 229 kts 261°
2026-05-04 10:34 39.50728 -94.38304 6387 ft 228 kts 261°
2026-05-04 10:34 39.50507 -94.40332 6176 ft 228 kts 261°
2026-05-04 10:35 39.50288 -94.42364 5943 ft 227 kts 261°
2026-05-04 10:35 39.50069 -94.44389 5729 ft 227 kts 261°
2026-05-04 10:35 39.49850 -94.46418 5516 ft 227 kts 261°
2026-05-04 10:35 39.49632 -94.48420 5307 ft 222 kts 261°
2026-05-04 10:36 39.49418 -94.50384 5100 ft 218 kts 261°
2026-05-04 10:36 39.49207 -94.52308 4896 ft 213 kts 261°
2026-05-04 10:36 39.49003 -94.54184 4693 ft 208 kts 259°
2026-05-04 10:36 39.48804 -94.56018 4512 ft 203 kts 259°
2026-05-04 10:37 39.48674 -94.57221 4376 ft 198 kts 259°
2026-05-04 10:37 39.48486 -94.58950 4195 ft 191 kts 259°
2026-05-04 10:37 39.48194 -94.60563 4020 ft 184 kts 246°
2026-05-04 10:37 39.47496 -94.61929 3898 ft 178 kts 229°
2026-05-04 10:39 39.41738 -94.66874 3215 ft 162 kts 200°
2026-05-04 10:39 39.40652 -94.67193 2994 ft 158 kts 199°
2026-05-04 10:39 39.39578 -94.67512 2778 ft 158 kts 197°
2026-05-04 10:40 39.38509 -94.67828 2557 ft 153 kts 198°
2026-05-04 10:40 39.37510 -94.68123 2363 ft 143 kts 198°
2026-05-04 10:40 39.36553 -94.68407 2192 ft 140 kts 197°
2026-05-04 10:40 39.35612 -94.68687 2012 ft 138 kts 196°
2026-05-04 10:41 39.34685 -94.68975 1822 ft 136 kts 196°
2026-05-04 10:41 39.33758 -94.69277 1631 ft 139 kts 194°
2026-05-04 10:41 39.32817 -94.69542 1481 ft 141 kts 192°
2026-05-04 10:41 39.31863 -94.69812 1313 ft 141 kts 192°
2026-05-04 10:42 39.30908 -94.70085 1130 ft 140 kts 192°
2026-05-04 10:42 39.29971 -94.70361 1016 ft 131 kts 192°
2026-05-04 10:42 39.29199 -94.70587 1009 ft 91 kts 193°
2026-05-04 10:42 39.28749 -94.70720 1017 ft 39 kts 193°
2026-05-04 10:43 39.28581 -94.70873 1020 ft 14 kts 236°
2026-05-04 10:44 39.29167 -94.71096 1015 ft 17 kts 276°
2026-05-04 10:45 39.29171 -94.71146 1015 ft 1 kts 276°
2026-05-04 10:45 39.29180 -94.71183 1016 ft 8 kts 303°
2026-05-04 10:45 39.29250 -94.71167 1015 ft 11 kts 42°
2026-05-04 10:45 39.29287 -94.71131 1014 ft 2 kts
2026-05-04 10:46 39.29295 -94.71149 1014 ft 2 kts 301°
2026-05-04 10:46 39.29311 -94.71165 1014 ft 4 kts 330°
2026-05-04 10:46 39.29321 -94.71172 1014 ft 0 kts 329°